Regional Weather Roundup
Issued by NWS Albany, NY

Home | Current Version | Previous Version | Text Only | Print | Product List | Glossary On
Versions: 1 2 3 4 5 6 7 8 9 10 11 12 13 14 15 16 17 18 19 20 21 22 23 24 25 26 27
000
ASUS41 KALY 240610
RWRALY

NEW YORK STATE HOURLY WEATHER ROUNDUP
NATIONAL WEATHER SERVICE ALBANY NY
200 AM EDT SUN JUL 24 2016

NOTE: "FAIR" INDICATES FEW OR NO CLOUDS BELOW 12,000 FEET WITH NO
SIGNIFICANT WEATHER AND/OR NO OBSTRUCTIONS TO VISIBILITY.

NYZ032-033-038>043-046>054-057>066-NYZ062>081-082-084-240700-
EAST


CITY           SKY/WX    TMP DP  RH WIND       PRES   REMARKS
ALBANY         PTCLDY    64  61  90 CALM      29.96R
GLENS FALLS    FOG       63  61  93 CALM      29.95R VSB 1/4
POUGHKEEPSIE   CLEAR     67  61  81 CALM      29.95R
NEWBURGH       CLEAR     73  61  64 VRB6      29.98R
MONTGOMERY     CLEAR     65  61  87 N3        29.96R
WHITE PLAINS   PTCLDY    74  57  55 N8        29.93R
ISLIP          CLEAR     75  59  57 N6        29.92R
NEW YORK CITY  PTCLDY    80  62  54 NE7       29.92R
CENTRAL PARK   PTCLDY    79  59  50 NE3       29.95R
$$

NYZ005>009-017-018-044>046-055-056-240700-
CENTRAL


CITY           SKY/WX    TMP DP  RH WIND       PRES   REMARKS
FULTON         CLEAR     67  63  87 CALM      29.98R
SYRACUSE       PTCLDY    67  62  84 CALM      29.98R
ROME           CLEAR     62  62 100 NE3       29.99S
ELMIRA         CLEAR     63  55  75 CALM      30.00R
BINGHAMTON     CLEAR     70  55  59 N7        30.02R
MONTICELLO     CLEAR     63  55  77 N5        30.02R
$$

NYZ026>034-041>043-087-240700-
NORTH


CITY           SKY/WX    TMP DP  RH WIND       PRES   REMARKS
WATERTOWN      CLEAR     61  59  93 E5        29.98R
FORT DRUM      NOT AVBL
MASSENA        CLEAR     67  57  70 N5        29.98R
SARANAC LAKE   PTCLDY    52  50  93 CALM      30.01R
PLATTSBURGH    CLOUDY    65  63  93 NW5       29.95R
$$

NYZ001>004-010>016-019>021-085-240700-
WEST


CITY           SKY/WX    TMP DP  RH WIND       PRES   REMARKS
NIAGARA FALLS  MOCLDY    72  59  63 CALM      29.99F
BUFFALO        MOCLDY    70  64  81 E3        30.00S
DUNKIRK        PTCLDY    66  62  87 CALM      30.00S
JAMESTOWN      PTCLDY    66  57  72 CALM      30.05S
WELLSVILLE     CLOUDY    68  57  68 CALM      30.08S
ROCHESTER      CLEAR     68  60  75 SW3       30.00R
PENN YAN       CLEAR     72  56  57 CALM      30.02R
$$

             KEY
       WCI = WIND CHILL INDEX
       VSB = VISIBILITY
       HX  = HEAT INDEX
$$




USA.gov is the U.S. government's official web portal to all federal, state and local government web resources and services.